FW3706 Weather Reports


Display with metric or nautical units.
time (UTC)temp
F
wind
direction
speed
MPH
gust
MPH
rain 1hr
in
rain 24hr
in
rain mn
in
humidity
%
barometer
mb
20260905154514 85 142 0.0 4.0 0.00 0.00 0.00 55 1016.7
20260905154004 84 139 0.0 4.0 0.00 0.00 0.00 56 1016.7
20260905153508 84 150 1.0 4.0 0.00 0.00 0.00 58 1016.7
20260905153013 83 150 1.0 3.0 0.00 0.00 0.00 58 1016.8
20260905152504 83 111 0.0 6.0 0.00 0.00 0.00 58 1016.8
20260905152007 82 98 2.0 6.0 0.00 0.00 0.00 59 1016.8
20260905151514 82 84 1.0 5.0 0.00 0.00 0.00 60 1016.7
20260905151008 82 87 2.0 5.0 0.00 0.00 0.00 61 1016.7
20260905150504 82 96 1.0 5.0 0.00 0.00 0.00 62 1016.7
20260905150013 81 90 2.0 6.0 0.00 0.00 0.00 62 1016.8
20260905145506 81 103 1.0 6.0 0.00 0.00 0.00 62 1016.8
20260905145007 81 68 0.0 5.0 0.00 0.00 0.00 64 1016.8
20260905144514 81 73 1.0 6.0 0.00 0.00 0.00 64 1016.7
20260905144009 80 53 1.0 6.0 0.00 0.00 0.00 64 1016.7
20260905143508 80 8 1.0 5.0 0.00 0.00 0.00 65 1016.7
20260905143015 80 5 1.0 5.0 0.00 0.00 0.00 65 1016.6
20260905142508 80 4 0.0 5.0 0.00 0.00 0.00 65 1016.6
20260905142008 79 6 0.0 5.0 0.00 0.00 0.00 66 1016.5
20260905141515 79 6 1.0 3.0 0.00 0.00 0.00 66 1016.5
20260905141006 79 6 0.0 5.0 0.00 0.00 0.00 68 1016.5
20260905140509 78 7 1.0 5.0 0.00 0.00 0.00 68 1016.4
20260905140017 77 6 0.0 3.0 0.00 0.00 0.00 70 1016.3
20260905135508 77 360 0.0 1.0 0.00 0.00 0.00 71 1016.3
20260905135008 77 360 0.0 1.0 0.00 0.00 0.00 71 1016.2
20260905134520 76 360 0.0 1.0 0.00 0.00 0.00 72 1016.1
20260905134008 76 360 0.0 1.0 0.00 0.00 0.00 73 1016.0
20260905133511 75 3 0.0 0.0 0.00 0.00 0.00 74 1016.0
20260905133017 75 3 0.0 0.0 0.00 0.00 0.00 74 1015.8
20260905132510 75 67 0.0 0.0 0.00 0.00 0.00 73 1015.8
20260905132008 75 69 0.0 0.0 0.00 0.00 0.00 73 1015.7
20260905131527 75 69 0.0 0.0 0.00 0.00 0.00 73 1015.6
20260905131008 75 69 0.0 0.0 0.00 0.00 0.00 72 1015.4
20260905130509 75 69 0.0 0.0 0.00 0.00 0.00 72 1015.4
20260905130008 75 70 0.0 0.0 0.00 0.00 0.00 72 1015.4
20260905125503 75 70 0.0 0.0 0.00 0.00 0.00 72 1015.5
20260905125008 75 70 0.0 0.0 0.00 0.00 0.00 72 1015.4
20260905124507 75 70 0.0 0.0 0.00 0.00 0.00 71 1015.4
20260905124000 76 70 0.0 0.0 0.00 0.00 0.00 71 1015.4
20260905123508 75 70 0.0 0.0 0.00 0.00 0.00 71 1015.4
20260905123008 76 70 0.0 0.0 0.00 0.00 0.00 71 1015.4
20260905122513 76 70 0.0 0.0 0.00 0.00 0.00 71 1015.3
20260905122005 76 70 0.0 0.0 0.00 0.00 0.00 71 1015.3
20260905121508 76 70 0.0 0.0 0.00 0.00 0.00 71 1015.3
20260905121013 76 70 0.0 0.0 0.00 0.00 0.00 70 1015.3
20260905120509 76 70 0.0 0.0 0.00 0.00 0.00 70 1015.1
20260905120008 76 70 0.0 0.0 0.00 0.00 0.00 69 1015.2
20260905115507 76 70 0.0 1.0 0.00 0.00 0.00 69 1015.1
20260905115006 76 69 0.0 1.0 0.00 0.00 0.00 69 1015.2
20260905114505 76 69 0.0 0.0 0.00 0.00 0.00 69 1015.2
20260905114010 77 69 0.0 0.0 0.00 0.00 0.00 68 1015.3
20260905113505 77 70 0.0 1.0 0.00 0.00 0.00 68 1015.2
20260905113008 77 69 0.0 1.0 0.00 0.00 0.00 68 1015.1
20260905112508 77 70 0.0 2.0 0.00 0.00 0.00 68 1015.2
20260905112007 77 69 0.0 2.0 0.00 0.00 0.00 68 1015.1
20260905111508 77 68 0.0 2.0 0.00 0.00 0.00 68 1015.2
20260905111013 77 68 0.0 2.0 0.00 0.00 0.00 67 1015.1
20260905110506 77 64 0.0 1.0 0.00 0.00 0.00 67 1015.1
20260905110006 77 64 0.0 1.0 0.00 0.00 0.00 67 1015.1
20260905105510 77 64 0.0 1.0 0.00 0.00 0.00 67 1015.1
20260905105009 77 64 0.0 1.0 0.00 0.00 0.00 66 1015.1
20260905104508 77 64 0.0 4.0 0.00 0.00 0.00 66 1015.0
20260905104010 77 64 0.0 5.0 0.00 0.00 0.00 66 1015.0
20260905103509 77 60 1.0 5.0 0.00 0.00 0.00 67 1015.1
20260905103020 77 58 0.0 4.0 0.00 0.00 0.00 67 1015.0
20260905102511 77 53 0.0 2.0 0.00 0.00 0.00 67 1015.1
20260905102009 77 56 0.0 2.0 0.00 0.00 0.00 67 1015.1
20260905101507 77 56 0.0 2.0 0.00 0.00 0.00 67 1015.1
20260905101009 77 3 0.0 1.0 0.00 0.00 0.00 67 1015.1
20260905100508 77 2 0.0 0.0 0.00 0.00 0.00 67 1015.1
20260905100014 77 2 0.0 1.0 0.00 0.00 0.00 67 1015.1
20260905095510 77 2 0.0 1.0 0.00 0.00 0.00 67 1015.2
20260905095007 77 2 0.0 0.0 0.00 0.00 0.00 67 1015.1
20260905094510 77 2 0.0 0.0 0.00 0.00 0.00 66 1015.1
20260905094015 78 2 0.0 1.0 0.00 0.00 0.00 66 1015.1
20260905093509 78 2 0.0 1.0 0.00 0.00 0.00 66 1015.1
20260905093009 78 2 0.0 0.0 0.00 0.00 0.00 66 1015.1
20260905092511 78 2 0.0 0.0 0.00 0.00 0.00 66 1015.1
20260905092008 78 2 0.0 0.0 0.00 0.00 0.00 65 1015.2
20260905091505 78 2 0.0 0.0 0.00 0.00 0.00 65 1015.2
20260905091009 78 2 0.0 0.0 0.00 0.00 0.00 65 1015.1
20260905090506 78 2 0.0 0.0 0.00 0.00 0.00 65 1015.2
20260905090011 78 2 0.0 0.0 0.00 0.00 0.00 64 1015.1
20260905085513 79 2 0.0 0.0 0.00 0.00 0.00 64 1015.1
20260905085009 79 2 0.0 0.0 0.00 0.00 0.00 64 1015.1
20260905084504 79 2 0.0 0.0 0.00 0.00 0.00 63 1015.1
20260905084013 79 2 0.0 0.0 0.00 0.00 0.00 63 1015.1
20260905083508 79 3 0.0 0.0 0.00 0.00 0.00 63 1015.2
20260905083008 79 6 0.0 0.0 0.00 0.00 0.00 62 1015.2
20260905082512 80 360 0.0 0.0 0.00 0.00 0.00 62 1015.2
20260905082008 80 360 0.0 0.0 0.00 0.00 0.00 61 1015.2
20260905081507 80 360 0.0 2.0 0.00 0.00 0.00 61 1015.3
20260905081013 80 360 0.0 2.0 0.00 0.00 0.00 61 1015.4
20260905080504 80 360 0.0 1.0 0.00 0.00 0.00 60 1015.4
20260905080008 80 360 0.0 0.0 0.00 0.00 0.00 60 1015.4
20260905075509 81 360 0.0 0.0 0.00 0.00 0.00 60 1015.5
20260905075007 81 360 0.0 1.0 0.00 0.00 0.00 59 1015.5
20260905074506 81 360 0.0 1.0 0.00 0.00 0.00 59 1015.5
20260905074013 81 360 0.0 1.0 0.00 0.00 0.00 58 1015.5
20260905073506 81 360 0.0 1.0 0.00 0.00 0.00 58 1015.4
20260905073011 81 360 0.0 1.0 0.00 0.00 0.00 58 1015.3
20260905072513 82 360 0.0 2.0 0.00 0.00 0.00 57 1015.3
20260905072008 82 13 0.0 2.0 0.00 0.00 0.00 57 1015.3
20260905071531 82 360 0.0 1.0 0.00 0.00 0.00 57 1015.3
20260905071013 82 360 0.0 1.0 0.00 0.00 0.00 57 1015.3
20260905070508 82 360 0.0 1.0 0.00 0.00 0.00 56 1015.2
20260905070035 82 360 0.0 2.0 0.00 0.00 0.00 57 1015.1
20260905065513 82 360 0.0 2.0 0.00 0.00 0.00 57 1015.2
20260905065007 82 360 0.0 1.0 0.00 0.00 0.00 56 1015.4
20260905064534 82 360 0.0 3.0 0.00 0.00 0.00 56 1015.4
20260905064012 83 360 0.0 3.0 0.00 0.00 0.00 56 1015.2
20260905063508 83 360 0.0 3.0 0.00 0.00 0.00 56 1015.3
20260905063031 83 360 0.0 4.0 0.00 0.00 0.00 56 1015.3
20260905062515 83 360 0.0 4.0 0.00 0.00 0.00 55 1015.3
20260905062008 83 360 0.0 4.0 0.00 0.00 0.00 55 1015.2
20260905061531 83 360 0.0 2.0 0.00 0.00 0.00 54 1015.1
20260905061014 83 360 0.0 0.0 0.00 0.00 0.00 54 1015.1
20260905060507 84 360 0.0 1.0 0.00 0.00 0.00 53 1015.1
20260905060036 84 360 0.0 1.0 0.00 0.00 0.00 53 1015.0
20260905055510 84 360 0.0 2.0 0.00 0.00 0.00 52 1015.0
20260905055008 84 360 0.0 3.0 0.00 0.00 0.00 52 1015.0
20260905054531 84 360 0.0 3.0 0.00 0.00 0.00 51 1015.0
20260905054011 84 360 0.0 3.0 0.00 0.00 0.00 50 1014.9
20260905053507 84 360 0.0 1.0 0.00 0.00 0.00 49 1014.8
20260905053034 85 360 0.0 1.0 0.00 0.00 0.00 49 1014.7
20260905052517 85 360 0.0 1.0 0.00 0.00 0.00 48 1014.7
20260905052009 86 360 0.0 2.0 0.00 0.00 0.00 47 1014.6
20260905051532 86 360 0.0 2.0 0.00 0.00 0.00 45 1014.5
20260905051012 86 360 0.0 1.0 0.00 0.00 0.00 45 1014.5
20260905050509 86 360 0.0 1.0 0.00 0.00 0.00 45 1014.5
20260905050031 86 360 0.0 0.0 0.00 0.00 0.00 45 1014.5
20260905045513 86 360 0.0 0.0 0.00 0.00 0.00 45 1014.5
20260905045008 86 360 0.0 1.0 0.00 0.00 0.00 45 1014.5
20260905044535 86 360 0.0 2.0 0.00 0.00 0.00 45 1014.5
20260905044013 86 360 0.0 2.0 0.00 0.00 0.00 45 1014.5
20260905043506 86 360 0.0 1.0 0.00 0.00 0.00 45 1014.4
20260905043033 86 360 0.0 0.0 0.00 0.00 0.00 45 1014.5
20260905042512 86 360 0.0 0.0 0.00 0.00 0.00 45 1014.5
20260905042008 86 360 0.0 0.0 0.00 0.00 0.00 44 1014.5
20260905041530 86 360 0.0 0.0 0.00 0.00 0.00 46 1014.5
20260905041010 86 360 0.0 0.0 0.00 0.00 0.00 44 1014.5
20260905040508 86 360 0.0 0.0 0.00 0.00 0.00 44 1014.5
20260905040031 86 360 0.0 0.0 0.00 0.00 0.00 43 1014.5
20260905035514 87 360 0.0 0.0 0.00 0.00 0.00 43 1014.5
20260905035005 87 360 0.0 0.0 0.00 0.00 0.00 43 1014.4
20260905034505 87 360 0.0 0.0 0.00 0.00 0.00 43 1014.4
20260905034013 87 8 0.0 0.0 0.00 0.00 0.00 43 1014.4
20260905033508 87 8 0.0 0.0 0.00 0.00 0.00 42 1014.3
20260905033005 87 8 0.0 0.0 0.00 0.00 0.00 41 1014.2
20260905032510 87 8 0.0 0.0 0.00 0.00 0.00 41 1014.1
20260905032008 88 8 0.0 0.0 0.00 0.00 0.00 41 1014.1
20260905031508 88 8 0.0 0.0 0.00 0.00 0.00 41 1014.0
20260905031014 88 8 0.0 0.0 0.00 0.00 0.00 41 1013.9
20260905030505 88 8 0.0 0.0 0.00 0.00 0.00 40 1013.9
20260905030004 88 8 0.0 0.0 0.00 0.00 0.00 40 1013.8
20260905025512 89 8 0.0 0.0 0.00 0.00 0.00 40 1013.7
20260905025004 89 8 0.0 3.0 0.00 0.00 0.00 39 1013.7
20260905024512 89 8 0.0 3.0 0.00 0.00 0.00 39 1013.5
20260905024012 89 8 0.0 2.0 0.00 0.00 0.00 39 1013.5
20260905023508 89 8 0.0 0.0 0.00 0.00 0.00 39 1013.4
20260905023005 89 8 0.0 1.0 0.00 0.00 0.00 38 1013.3
20260905022511 89 8 0.0 1.0 0.00 0.00 0.00 38 1013.3
20260905022008 90 8 0.0 1.0 0.00 0.00 0.00 37 1013.4
20260905021507 90 8 0.0 0.0 0.00 0.00 0.00 37 1013.4
20260905021009 90 8 0.0 1.0 0.00 0.00 0.00 36 1013.3
20260905020505 91 8 0.0 2.0 0.00 0.00 0.00 35 1013.2
20260905020005 91 8 0.0 2.0 0.00 0.00 0.00 35 1013.0
20260905015512 91 8 0.0 2.0 0.00 0.00 0.00 34 1013.0
20260905015008 91 8 0.0 2.0 0.00 0.00 0.00 34 1013.0
20260905014529 92 8 0.0 2.0 0.00 0.00 0.00 33 1012.9
20260905014012 92 8 0.0 3.0 0.00 0.00 0.00 32 1012.9
20260905013507 92 259 1.0 3.0 0.00 0.00 0.00 31 1012.9
20260905013039 93 259 0.0 5.0 0.00 0.00 0.00 31 1012.9
20260905012513 93 259 1.0 5.0 0.00 0.00 0.00 30 1012.9
20260905012004 93 257 2.0 5.0 0.00 0.00 0.00 30 1012.9
20260905011531 93 257 1.0 5.0 0.00 0.00 0.00 29 1012.8
20260905011012 93 255 3.0 7.0 0.00 0.00 0.00 29 1012.8
20260905010505 94 262 2.0 8.0 0.00 0.00 0.00 28 1012.8
20260905010030 94 284 4.0 8.0 0.00 0.00 0.00 28 1012.8
20260905005512 95 248 4.0 9.0 0.00 0.00 0.00 29 1012.8
20260905005010 95 252 3.0 9.0 0.00 0.00 0.00 29 1012.8
20260905004532 95 276 4.0 9.0 0.00 0.00 0.00 28 1012.7
20260905004010 96 251 3.0 9.0 0.00 0.00 0.00 28 1012.7
20260905003507 96 260 4.0 8.0 0.00 0.00 0.00 27 1012.8
20260905003032 97 293 1.0 7.0 0.00 0.00 0.00 28 1012.6
20260905002512 96 272 1.0 7.0 0.00 0.00 0.00 29 1012.6
20260905002012 96 238 2.0 11.0 0.00 0.00 0.00 29 1012.5
20260905001527 95 229 4.0 11.0 0.00 0.00 0.00 28 1012.4
20260905001013 96 238 6.0 11.0 0.00 0.00 0.00 29 1012.3
20260905000505 97 242 2.0 7.0 0.00 0.00 0.00 29 1012.4
20260905000031 97 274 0.0 5.0 0.00 0.00 0.00 30 1012.4
20260904235511 97 257 0.0 10.0 0.00 0.00 0.00 30 1012.4
20260904235008 96 252 1.0 10.0 0.00 0.00 0.00 30 1012.4
20260904234532 97 255 3.0 10.0 0.00 0.00 0.00 30 1012.5
20260904234010 96 271 4.0 9.0 0.00 0.00 0.00 31 1012.5
20260904233506 96 319 0.0 6.0 0.00 0.00 0.00 33 1012.6
20260904233028 96 349 2.0 4.0 0.00 0.00 0.00 33 1012.6
20260904232510 95 270 0.0 7.0 0.00 0.00 0.00 33 1012.7
20260904232005 95 300 1.0 11.0 0.00 0.00 0.00 34 1012.7
20260904231535 94 252 5.0 11.0 0.00 0.00 0.00 34 1012.8
20260904231016 95 276 3.0 8.0 0.00 0.00 0.00 33 1012.7
20260904230504 96 259 1.0 8.0 0.00 0.00 0.00 32 1012.8
20260904230031 97 307 2.0 8.0 0.00 0.00 0.00 32 1012.8
20260904225511 96 247 2.0 8.0 0.00 0.00 0.00 32 1012.8
20260904225007 96 309 4.0 7.0 0.00 0.00 0.00 31 1012.9
20260904224532 98 248 1.0 6.0 0.00 0.00 0.00 30 1012.9
20260904224010 97 287 0.0 10.0 0.00 0.00 0.00 31 1012.9
20260904223506 96 334 3.0 9.0 0.00 0.00 0.00 31 1012.9
20260904223032 97 295 3.0 9.0 0.00 0.00 0.00 31 1013.0
20260904222519 98 260 4.0 12.0 0.00 0.00 0.00 29 1012.9
20260904222015 96 283 2.0 12.0 0.00 0.00 0.00 29 1012.9
20260904221530 97 287 4.0 11.0 0.00 0.00 0.00 29 1013.0
20260904221012 97 243 6.0 11.0 0.00 0.00 0.00 29 1013.0
20260904220518 97 293 5.0 10.0 0.00 0.00 0.00 29 1013.2
20260904220028 97 247 2.0 8.0 0.00 0.00 0.00 29 1013.2
20260904215511 97 279 1.0 5.0 0.00 0.00 0.00 31 1013.3
20260904215007 97 252 1.0 9.0 0.00 0.00 0.00 31 1013.4
20260904214532 95 249 1.0 9.0 0.00 0.00 0.00 32 1013.5
20260904214011 95 291 1.0 7.0 0.00 0.00 0.00 33 1013.5
20260904213518 94 226 0.0 7.0 0.00 0.00 0.00 33 1013.6
20260904213031 95 306 1.0 9.0 0.00 0.00 0.00 33 1013.7
20260904212513 96 243 2.0 10.0 0.00 0.00 0.00 35 1013.8
20260904212003 96 263 3.0 10.0 0.00 0.00 0.00 35 1013.8
20260904211532 97 271 4.0 10.0 0.00 0.00 0.00 35 1013.7
20260904211022 97 335 1.0 7.0 0.00 0.00 0.00 35 1013.8
20260904210518 96 245 0.0 7.0 0.00 0.00 0.00 36 1013.9
20260904210033 96 272 2.0 7.0 0.00 0.00 0.00 35 1013.9
20260904205522 96 232 1.0 6.0 0.00 0.00 0.00 35 1014.0
20260904205015 96 213 1.0 7.0 0.00 0.00 0.00 36 1014.0
20260904204529 95 309 2.0 10.0 0.00 0.00 0.00 36 1014.1
20260904204022 96 252 4.0 10.0 0.00 0.00 0.00 36 1014.2
20260904203518 97 270 1.0 7.0 0.00 0.00 0.00 36 1014.3
20260904203030 95 262 3.0 10.0 0.00 0.00 0.00 37 1014.4
20260904202511 95 245 5.0 10.0 0.00 0.00 0.00 37 1014.4
20260904202020 96 243 2.0 8.0 0.00 0.00 0.00 37 1014.4
20260904201535 95 274 4.0 8.0 0.00 0.00 0.00 36 1014.5
20260904201010 95 210 2.0 6.0 0.00 0.00 0.00 37 1014.6
20260904200520 95 243 1.0 6.0 0.00 0.00 0.00 36 1014.6
20260904200033 96 177 1.0 4.0 0.00 0.00 0.00 36 1014.7
20260904195515 96 338 0.0 6.0 0.00 0.00 0.00 37 1014.7
20260904195017 95 307 2.0 6.0 0.00 0.00 0.00 36 1014.8
20260904194536 94 339 0.0 6.0 0.00 0.00 0.00 38 1014.9
20260904194009 95 240 0.0 6.0 0.00 0.00 0.00 39 1015.0
20260904193519 95 240 1.0 7.0 0.00 0.00 0.00 38 1015.1
20260904193030 95 250 0.0 7.0 0.00 0.00 0.00 38 1015.1
20260904192523 94 293 0.0 5.0 0.00 0.00 0.00 37 1015.2
20260904192018 94 208 1.0 6.0 0.00 0.00 0.00 37 1015.3
20260904191532 94 242 2.0 6.0 0.00 0.00 0.00 38 1015.4
20260904191010 94 196 2.0 6.0 0.00 0.00 0.00 37 1015.5
20260904190516 94 213 3.0 6.0 0.00 0.00 0.00 38 1015.5
20260904190031 93 167 2.0 4.0 0.00 0.00 0.00 39 1015.6
20260904185509 94 166 0.0 3.0 0.00 0.00 0.00 40 1015.6
20260904185004 93 153 0.0 3.0 0.00 0.00 0.00 41 1015.8
20260904184507 92 151 0.0 4.0 0.00 0.00 0.00 41 1015.8
20260904184010 92 141 0.0 6.0 0.00 0.00 0.00 42 1015.9
20260904183505 93 210 1.0 6.0 0.00 0.00 0.00 42 1015.9
20260904183004 92 199 2.0 7.0 0.00 0.00 0.00 42 1016.0
20260904182510 91 192 2.0 7.0 0.00 0.00 0.00 44 1016.1
20260904182012 92 200 2.0 6.0 0.00 0.00 0.00 45 1016.1
20260904181504 91 210 2.0 6.0 0.00 0.00 0.00 46 1016.1
20260904181018 90 188 1.0 5.0 0.00 0.00 0.00 46 1016.2
20260904180516 90 160 1.0 4.0 0.00 0.00 0.00 47 1016.2
20260904180035 90 162 0.0 6.0 0.00 0.00 0.00 48 1016.4
20260904175508 90 142 2.0 6.0 0.00 0.00 0.00 47 1016.4
20260904175004 90 129 2.0 6.0 0.00 0.00 0.00 48 1016.4
20260904174506 90 149 0.0 5.0 0.00 0.00 0.00 49 1016.5
20260904174010 89 167 1.0 5.0 0.00 0.00 0.00 51 1016.5
20260904173516 89 157 1.0 7.0 0.00 0.00 0.00 52 1016.5
20260904173028 89 91 1.0 7.0 0.00 0.00 0.00 52 1016.6
20260904172514 89 204 3.0 7.0 0.00 0.00 0.00 54 1016.5
20260904172007 88 60 0.0 7.0 0.00 0.00 0.00 55 1016.7
20260904171504 88 46 0.0 7.0 0.00 0.00 0.00 55 1016.8
20260904171019 88 51 3.0 7.0 0.00 0.00 0.00 56 1016.8
20260904170518 87 71 1.0 7.0 0.00 0.00 0.00 56 1016.9
20260904170029 87 68 3.0 8.0 0.00 0.00 0.00 57 1016.9
20260904165513 87 74 2.0 8.0 0.00 0.00 0.00 57 1016.9
20260904165007 87 31 3.0 8.0 0.00 0.00 0.00 57 1016.8
20260904164506 87 59 2.0 8.0 0.00 0.00 0.00 58 1016.8
20260904164017 86 70 2.0 7.0 0.00 0.00 0.00 58 1016.8
20260904163516 86 128 1.0 10.0 0.00 0.00 0.00 59 1016.7
20260904163033 86 86 2.0 10.0 0.00 0.00 0.00 59 1016.7
20260904162510 85 147 2.0 7.0 0.00 0.00 0.00 59 1016.6
20260904162006 86 108 2.0 9.0 0.00 0.00 0.00 59 1016.7
20260904161504 85 112 4.0 9.0 0.00 0.00 0.00 60 1016.7
20260904161019 85 45 3.0 7.0 0.00 0.00 0.00 60 1016.6
20260904160504 85 118 1.0 8.0 0.00 0.00 0.00 61 1016.6
20260904160009 85 94 3.0 8.0 0.00 0.00 0.00 60 1016.6
20260904155519 84 83 2.0 6.0 0.00 0.00 0.00 62 1016.6
20260904155019 84 94 2.0 6.0 0.00 0.00 0.00 62 1016.6